{"data":{"norad_id":85418,"epoch":"2026-06-09T12:32:31.873632Z","epoch_age_seconds":8911335,"freshness":"OLD","line1":"1 85418U          26160.52259113  .00047909  00000+0  68705-3 0  9996","line2":"2 85418  54.9942 340.4332 0008111 255.4183 104.5953 15.55700982    19","mean_motion":15.55700982,"eccentricity":0.0008111,"inclination_deg":54.9942,"raan_deg":340.4332,"arg_perigee_deg":255.4183,"mean_anomaly_deg":104.5953,"bstar":0.00068705,"rev_number":1,"period_min":92.562775023047,"perigee_km":394.61788558724,"apogee_km":405.61356715997,"semimajor_km":6778.2527263736,"source":"CELESTRAK","updated_at":"2026-07-09T09:01:41.477262Z"}}